Regional Weather Roundup
Issued by NWS

Home | Current Version | Previous Version | Text Only | Print | Product List | Glossary On
Versions: 1 2 3 4 5 6 7 8 9 10 11 12 13 14 15 16 17 18 19 20 21 22 23 24 25 26 27 28 29 30 31 32 33 34 35 36 37 38 39 40 41 42 43 44 45 46 47 48 49 50
000
ASUS43 KTOP 051108
RWRKS

WEATHER ROUNDUP FOR KANSAS
NATIONAL WEATHER SERVICE GOODLAND KS
500 AM CST MON DEC 05 2016

NOTE:  "FAIR" INDICATES FEW OR NO CLOUDS BELOW 12,000 FEET WITH NO
SIGNIFICANT WEATHER AND/OR OBSTRUCTIONS TO VISIBILITY.

KSZ001>006-013>018-027>032-041>047-051200-
NORTHWEST KANSAS

CITY           SKY/WX    TMP DP  RH WIND       PRES   REMARKS
GOODLAND       CLOUDY    31  16  54 SW15      29.60F WCI  20
HAYS           CLOUDY    37  25  61 SW13      29.76F WCI  29
HILL CITY      CLOUDY    41  25  53 S12G21    29.68F
RUSSELL        CLOUDY    36  26  67 S16       29.76F WCI  26
$$

KSZ061>065-074>080-084>089-051200-
SOUTHWEST KANSAS

CITY           SKY/WX    TMP DP  RH WIND       PRES   REMARKS
DODGE CITY     CLEAR     34  26  72 S13       29.77F WCI  25
ELKHART          N/A     31  18  59 S12         N/A  WCI  22
GARDEN CITY    CLOUDY    27  22  81 S7        29.73F
GREAT BEND     CLEAR     37  28  70 S20       29.79F WCI  27
LIBERAL        CLOUDY    30  23  74 SW14      29.76F WCI  20
PRATT          CLEAR     32  28  85 S15       29.82F WCI  22
$$

KSZ066>073-081>083-090>101-051200-
SOUTHEAST KANSAS

CITY           SKY/WX    TMP DP  RH WIND       PRES   REMARKS
CHANUTE        CLOUDY    34  33  96 S5        29.95F FOG
COFFEYVILLE    FOG       33  33 100 CALM      29.97F VSB 1/4
HUTCHINSON     CLEAR     34  29  82 S10       29.85F WCI  26
MEDICINE LODGE   N/A     32  28  85 S8        29.85F
NEWTON         CLEAR     34  32  92 S12       29.87F WCI  25
PARSONS        FOG       34  32  92 CALM      29.97F VSB 1
WICHITA INTL   CLEAR     33  31  92 S10       29.89F WCI  25
WICHITA JABRA  CLEAR     35  33  92 S10       29.89F WCI  27
WICHITA MCCONL CLEAR     34  31  89 S9        29.89F
WINFIELD       CLOUDY    32  31  96 SE6       29.92F FOG
$$

KSZ007>012-019>026-033>040-048>060-102>105-051200-
NORTHEAST KANSAS

CITY           SKY/WX    TMP DP  RH WIND       PRES   REMARKS
CONCORDIA      CLOUDY    37  27  67 S18G25    29.78F WCI  27
EMPORIA        CLEAR     32  31  96 S13       29.90F WCI  22
LAWRENCE       CLEAR     29  29 100 E6        29.93F
MANHATTAN      CLEAR     26  25  96 CALM      29.87F
MARYSVILLE     CLEAR     34  30  86 S8        29.82F
OLATHE IND     CLEAR     33  33 100 S9        29.93F
OLATHE EXE     CLEAR     32  31  96 S5        29.93F
SALINA         CLEAR     33  28  81 S9        29.83F
TOPEKA BILLARD CLEAR     35  32  88 S7        29.91F
TOPEKA FORBES  CLEAR     35  33  92 S10       29.90F WCI  27
$$



USA.gov is the U.S. government's official web portal to all federal, state and local government web resources and services.